TimeEDT,TemperatureF,Dew PointF,Humidity,Sea Level PressureIn,VisibilityMPH,Wind Direction,Wind SpeedMPH,Gust SpeedMPH,PrecipitationIn,Events,Conditions,WindDirDegrees,DateUTC
12:51 AM,48.0,42.1,80,30.04,10.0,Calm,Calm,-,N/A,,Clear,0,2012-10-07 04:51:00
1:51 AM,48.0,39.9,74,30.04,10.0,NW,9.2,-,N/A,,Clear,310,2012-10-07 05:51:00
2:51 AM,46.0,37.9,73,30.04,10.0,Calm,Calm,-,N/A,,Clear,0,2012-10-07 06:51:00
3:51 AM,45.0,37.0,74,30.04,10.0,NNW,3.5,-,N/A,,Clear,340,2012-10-07 07:51:00
4:51 AM,43.0,37.0,80,30.05,10.0,Calm,Calm,-,N/A,,Clear,0,2012-10-07 08:51:00
5:51 AM,44.1,39.0,82,30.06,10.0,Calm,Calm,-,N/A,,Clear,0,2012-10-07 09:51:00
6:51 AM,44.1,41.0,89,30.09,10.0,NNW,3.5,-,N/A,,Overcast,330,2012-10-07 10:51:00
7:51 AM,46.0,43.0,89,30.11,10.0,Calm,Calm,-,N/A,,Overcast,0,2012-10-07 11:51:00
8:51 AM,48.0,42.1,80,30.13,10.0,WNW,3.5,-,N/A,,Overcast,290,2012-10-07 12:51:00
9:51 AM,48.9,42.1,77,30.12,10.0,Calm,Calm,-,0.00,Rain,Light Rain,0,2012-10-07 13:51:00
10:51 AM,50.0,43.0,77,30.13,10.0,WSW,4.6,-,0.00,,Overcast,240,2012-10-07 14:51:00
11:51 AM,51.1,43.0,74,30.11,10.0,Calm,Calm,-,N/A,,Overcast,0,2012-10-07 15:51:00
12:51 PM,53.1,39.9,61,30.10,10.0,SSW,4.6,-,N/A,,Mostly Cloudy,210,2012-10-07 16:51:00
1:51 PM,54.0,41.0,62,30.08,10.0,South,4.6,-,N/A,,Mostly Cloudy,190,2012-10-07 17:51:00
2:51 PM,54.0,39.0,57,30.06,10.0,SE,3.5,-,0.00,,Overcast,140,2012-10-07 18:51:00
3:51 PM,53.1,39.9,61,30.05,10.0,SSW,4.6,-,N/A,,Overcast,200,2012-10-07 19:51:00
4:51 PM,52.0,43.0,71,30.03,10.0,SW,4.6,-,0.00,,Overcast,230,2012-10-07 20:51:00
5:51 PM,51.1,43.0,74,30.03,10.0,SW,5.8,-,0.00,Rain,Light Rain,220,2012-10-07 21:51:00
6:51 PM,50.0,45.0,83,30.08,10.0,WSW,6.9,-,0.00,,Overcast,240,2012-10-07 22:51:00
7:51 PM,48.9,46.0,90,30.11,4.0,West,5.8,-,0.07,Rain,Rain,270,2012-10-07 23:51:00
8:51 PM,48.0,46.0,93,30.11,7.0,WSW,4.6,-,0.04,Rain,Light Rain,250,2012-10-08 00:51:00
9:51 PM,48.0,46.0,93,30.13,9.0,WSW,3.5,-,0.01,,Overcast,250,2012-10-08 01:51:00
10:21 PM,48.2,46.4,93,30.13,8.0,WNW,3.5,-,N/A,,Overcast,290,2012-10-08 02:21:00
10:51 PM,48.0,46.0,93,30.12,8.0,Calm,Calm,-,0.01,,Mostly Cloudy,0,2012-10-08 02:51:00
11:51 PM,45.0,44.1,97,30.13,6.0,WSW,4.6,-,N/A,,Mostly Cloudy,250,2012-10-08 03:51:00